Forum Crazy Orc - Centre de statistiques

Statistiques générales

Total des membres:
971
Total des messages:
96 460
Total des sujets:
4 016
Total des catégories:
4
Membres en ligne:
64
Connexions simultanées:
808 - 21 janvier 2020 à 20:55:59
En ligne aujourd'hui:
94
Total des pages vues:
32 545 763
Moyenne des inscriptions par jour:
0,25
Moyenne des messages par jour:
24,86
Moyenne des sujets par jour:
1,10
Total des sections:
40
Dernier membre:
Enfantdiluvatar
Moyenne d'utilisateurs connectés par jour:
47,30
Ratio hommes/femmes:
7.1:1
Pages vues en moyenne par jour:
5 768,48

Top lanceurs de sujets

nunch
600
ManuDevil
287
Morithil
282
GroumpH
246
Scratchy
132
MAO
110
LeDupontesque
105
jules
99
snake
92
CCCP
85

Temps de connexion cumulé

Mandy
133j 19h 59m
GroumpH
112j 9h 9m
CCCP
86j 5h 36m
Nukeflow
73j 8h 19m
ManuDevil
67j 8h 10m
Felipe
61j 12h 19m
dao
56j 17h 58m
nunch
49j 46m
Rh
42j 23h 32m
Patate
41j 23h 0m

Historique du forum (basé sur l'heure interne du forum)

Résumé annuel Nouveaux sujets Nouveaux messages Nouveaux membres Connexions simultanées Pages vues
* 2022 117 689 59 208 2 292 030
Août 2022 2 18 2 116 136 233
Juillet 2022 13 69 4 208 308 045
Juin 2022 14 76 4 62 333 112
Mai 2022 16 118 8 91 339 244
Avril 2022 18 133 12 61 254 691
Mars 2022 15 123 8 65 281 935
Février 2022 17 84 9 58 314 588
Janvier 2022 22 68 12 70 324 182
* 2021 129 756 53 338 4 376 522
Décembre 2021 8 37 0 129 661 064
Novembre 2021 13 99 4 153 262 314
Octobre 2021 20 208 15 159 298 103
Septembre 2021 24 171 10 280 285 455
Août 2021 11 33 7 73 231 609
Juillet 2021 6 8 2 81 305 173
2021-07-01 0 0 0 75 10 036
2021-07-02 0 0 0 81 8 440
2021-07-03 0 0 0 67 13 230
2021-07-04 0 0 0 36 8 785
2021-07-05 0 0 0 40 9 194
2021-07-06 0 0 0 42 10 481
2021-07-07 0 0 0 39 7 665
2021-07-08 0 0 0 49 10 484
2021-07-09 0 0 0 50 10 282
2021-07-10 0 0 0 51 10 523
2021-07-11 0 0 0 50 8 246
2021-07-12 0 0 0 45 7 596
2021-07-13 0 0 0 35 7 852
2021-07-14 0 0 0 53 8 163
2021-07-15 0 0 0 38 9 082
2021-07-16 0 0 0 36 8 446
2021-07-17 0 0 1 39 9 669
2021-07-18 0 1 0 39 9 019
2021-07-19 0 0 0 43 11 040
2021-07-20 0 0 0 35 11 389
2021-07-21 0 0 0 40 7 890
2021-07-22 0 0 0 40 7 654
2021-07-23 0 0 0 35 8 792
2021-07-24 0 0 0 32 8 114
2021-07-25 0 0 0 33 6 522
2021-07-26 0 1 0 38 7 728
2021-07-27 0 0 0 35 9 299
2021-07-28 0 0 0 28 6 500
2021-07-29 0 0 0 35 36 222
2021-07-30 0 0 1 37 7 791
2021-07-31 6 6 0 32 9 039
Juin 2021 17 31 2 135 311 168
Mai 2021 3 31 4 268 597 777
Avril 2021 10 51 6 287 308 355
2021-04-01 1 5 1 73 10 500
2021-04-02 0 2 0 71 8 047
2021-04-03 0 0 0 59 7 541
2021-04-04 1 3 1 56 9 206
2021-04-05 0 0 0 59 8 809
2021-04-06 0 1 0 59 6 737
2021-04-07 0 4 0 63 6 731
2021-04-08 0 0 0 64 9 161
2021-04-09 0 0 0 65 8 780
2021-04-10 0 0 0 64 8 686
2021-04-11 0 1 0 59 9 738
2021-04-12 0 2 0 63 9 761
2021-04-13 1 3 1 71 11 667
2021-04-14 0 4 0 287 14 963
2021-04-15 0 0 0 74 11 393
2021-04-16 0 2 0 68 9 533
2021-04-17 0 0 0 68 7 869
2021-04-18 0 0 0 73 6 458
2021-04-19 0 1 0 67 6 158
2021-04-20 3 3 1 76 9 885
2021-04-21 1 8 1 91 8 256
2021-04-22 0 5 0 132 10 159
2021-04-23 0 0 0 145 14 980
2021-04-24 1 1 0 132 12 209
2021-04-25 0 2 0 142 12 832
2021-04-26 1 2 0 116 9 593
2021-04-27 0 1 0 118 9 289
2021-04-28 0 0 1 107 12 148
2021-04-29 0 0 0 107 9 489
2021-04-30 1 1 0 104 27 777
Mars 2021 7 24 1 308 444 900
2021-03-01 0 0 0 72 8 645
2021-03-02 1 2 0 62 7 066
2021-03-03 0 1 0 58 5 404
2021-03-04 0 0 1 61 5 201
2021-03-05 0 0 0 63 8 432
2021-03-06 0 0 0 60 4 862
2021-03-07 0 1 0 50 4 615
2021-03-08 0 0 0 55 4 461
2021-03-09 0 0 0 58 6 240
2021-03-10 0 0 0 65 8 568
2021-03-11 1 3 0 62 4 993
2021-03-12 0 1 0 55 5 378
2021-03-13 0 0 0 60 4 371
2021-03-14 0 1 0 65 5 377
2021-03-15 1 1 0 69 7 164
2021-03-16 0 1 0 98 8 406
2021-03-17 1 6 0 308 16 132
2021-03-18 0 0 0 75 162 827
2021-03-19 0 0 0 83 38 605
2021-03-20 0 2 0 68 10 275
2021-03-21 0 0 0 72 11 763
2021-03-22 0 0 0 54 8 930
2021-03-23 0 0 0 94 11 374
2021-03-24 0 0 0 97 12 163
2021-03-25 0 0 0 117 11 569
2021-03-26 0 1 0 127 11 884
2021-03-27 0 1 0 104 7 707
2021-03-28 0 0 0 89 8 951
2021-03-29 0 0 0 77 10 399
2021-03-30 0 0 0 73 11 056
2021-03-31 3 3 0 77 12 082
Février 2021 5 29 2 338 223 056
Janvier 2021 5 34 0 322 447 548
* 2020 206 1 716 105 808 4 713 463
Décembre 2020 6 38 2 320 310 487
2020-12-01 1 1 0 121 10 809
2020-12-02 0 3 0 116 10 099
2020-12-03 0 2 0 114 11 876
2020-12-04 0 0 0 94 10 791
2020-12-05 0 3 0 82 9 574
2020-12-06 1 10 0 78 10 653
2020-12-07 0 4 0 68 10 998
2020-12-08 0 0 0 66 32 260
2020-12-09 0 1 0 67 7 435
2020-12-10 0 1 1 60 7 610
2020-12-11 0 0 0 60 7 643
2020-12-12 0 1 0 63 7 412
2020-12-13 0 1 0 50 7 185
2020-12-14 1 2 0 46 5 821
2020-12-15 0 1 0 44 8 427
2020-12-16 0 0 0 320 13 083
2020-12-17 0 0 0 74 9 703
2020-12-18 0 0 0 71 8 569
2020-12-19 0 0 0 63 7 390
2020-12-20 0 3 0 65 6 819
2020-12-21 1 1 0 59 6 108
2020-12-22 0 0 0 70 10 438
2020-12-23 0 1 0 73 9 331
2020-12-24 0 0 0 72 10 558
2020-12-25 0 0 0 77 9 826
2020-12-26 0 0 0 72 10 399
2020-12-27 1 1 1 88 10 008
2020-12-28 0 1 0 88 8 712
2020-12-29 1 1 0 105 10 795
2020-12-30 0 0 0 79 10 368
2020-12-31 0 0 0 69 9 787
Novembre 2020 12 97 3 352 464 426
Octobre 2020 21 169 7 346 497 422
Septembre 2020 30 356 15 133 325 183
Août 2020 16 147 7 163 471 897
Juillet 2020 16 77 2 100 345 760
2020-07-01 0 3 0 53 15 128
2020-07-02 0 0 0 50 14 023
2020-07-03 0 0 0 54 10 055
2020-07-04 0 1 0 54 7 181
2020-07-05 1 2 0 53 7 390
2020-07-06 2 4 0 53 12 535
2020-07-07 0 0 0 57 13 793
2020-07-08 1 3 1 56 12 452
2020-07-09 1 5 0 96 12 087
2020-07-10 0 5 0 98 12 988
2020-07-11 0 0 0 88 11 107
2020-07-12 0 2 0 83 8 142
2020-07-13 0 4 0 76 10 295
2020-07-14 1 2 0 78 11 064
2020-07-15 2 3 0 76 12 030
2020-07-16 1 13 0 84 10 150
2020-07-17 0 2 0 65 10 880
2020-07-18 0 1 0 68 11 217
2020-07-19 0 1 0 74 13 216
2020-07-20 1 6 1 100 12 998
2020-07-21 0 6 0 93 11 786
2020-07-22 3 6 0 73 9 832
2020-07-23 1 1 0 78 11 746
2020-07-24 0 1 0 90 11 406
2020-07-25 0 1 0 83 9 782
2020-07-26 0 0 0 93 11 234
2020-07-27 2 3 0 93 9 667
2020-07-28 0 0 0 98 10 158
2020-07-29 0 1 0 94 10 268
2020-07-30 0 1 0 93 11 155
2020-07-31 0 0 0 88 9 995
Juin 2020 17 60 5 127 452 817
Mai 2020 7 22 3 295 321 652
Avril 2020 10 47 1 189 300 030
Mars 2020 24 253 3 199 467 854
Février 2020 18 171 9 323 281 798
2020-02-01 0 6 1 110 22 857
2020-02-02 0 4 0 113 19 748
2020-02-03 3 6 2 225 8 437
2020-02-04 0 4 0 323 5 481
2020-02-05 0 1 1 124 6 151
2020-02-06 0 4 0 123 9 304
2020-02-07 0 5 0 154 11 432
2020-02-08 0 4 0 133 9 152
2020-02-09 0 3 0 131 10 284
2020-02-10 0 2 0 110 5 432
2020-02-11 3 10 0 135 4 471
2020-02-12 0 5 0 126 6 869
2020-02-13 0 5 0 128 11 009
2020-02-14 1 4 0 156 5 546
2020-02-15 0 2 0 171 6 296
2020-02-16 0 5 1 133 5 755
2020-02-17 4 21 1 132 8 743
2020-02-18 0 18 0 138 7 508
2020-02-19 0 2 0 137 7 400
2020-02-20 0 12 0 143 8 914
2020-02-21 1 9 1 154 8 884
2020-02-22 0 15 0 167 11 618
2020-02-23 0 1 0 164 12 863
2020-02-24 5 10 0 167 13 726
2020-02-25 0 1 0 196 13 396
2020-02-26 1 4 0 188 11 554
2020-02-27 0 5 1 132 9 231
2020-02-28 0 3 0 145 10 882
2020-02-29 0 0 1 132 8 855
Janvier 2020 29 279 48 808 474 137
* 2019 246 3 411 313 446 3 308 531
Décembre 2019 18 159 26 446 351 248
Novembre 2019 16 245 33 325 524 135
Octobre 2019 24 272 59 121 189 762
Septembre 2019 25 386 54 141 376 708
Août 2019 22 257 31 122 225 760
Juillet 2019 24 281 62 149 190 301
Juin 2019 11 171 3 112 246 519
Mai 2019 23 311 10 167 218 891
Avril 2019 21 294 9 174 311 459
2019-04-01 1 11 0 174 7 945
2019-04-02 3 24 0 122 7 494
2019-04-03 1 14 0 142 9 858
2019-04-04 0 8 0 139 10 089
2019-04-05 0 2 0 133 12 161
2019-04-06 1 12 1 133 7 608
2019-04-07 0 6 0 120 7 430
2019-04-08 1 14 1 135 8 563
2019-04-09 0 13 0 137 16 179
2019-04-10 2 17 0 144 19 838
2019-04-11 1 14 1 138 21 613
2019-04-12 0 14 0 119 19 438
2019-04-13 1 11 3 51 7 170
2019-04-14 0 4 0 64 8 623
2019-04-15 0 0 0 61 10 243
2019-04-16 0 1 0 55 8 411
2019-04-17 0 2 0 72 6 278
2019-04-18 1 9 0 62 9 286
2019-04-19 2 8 0 70 7 179
2019-04-20 0 5 0 129 4 258
2019-04-21 0 11 1 152 3 979
2019-04-22 2 7 0 170 5 151
2019-04-23 0 9 0 59 8 482
2019-04-24 0 17 0 78 9 241
2019-04-25 1 13 2 57 13 826
2019-04-26 0 6 0 58 15 753
2019-04-27 0 2 0 47 12 881
2019-04-28 3 17 0 58 10 108
2019-04-29 1 20 0 57 11 176
2019-04-30 0 3 0 58 11 198
Mars 2019 22 372 16 142 344 146
Février 2019 18 288 4 110 142 132
Janvier 2019 22 375 6 113 187 470
* 2018 338 6 176 81 641 2 624 946
Décembre 2018 43 306 8 253 421 582
Novembre 2018 26 467 9 641 383 363
Octobre 2018 34 527 6 321 248 725
Septembre 2018 34 641 10 127 216 306
2018-09-01 0 20 0 24 4 424
2018-09-02 0 20 0 65 4 793
2018-09-03 3 22 0 85 7 578
2018-09-04 0 24 0 84 8 791
2018-09-05 1 20 0 84 9 905
2018-09-06 0 36 1 83 11 031
2018-09-07 1 20 0 87 10 613
2018-09-08 5 19 0 83 13 818
2018-09-09 0 26 0 92 9 656
2018-09-10 0 27 1 20 3 224
2018-09-11 4 21 1 27 4 264
2018-09-12 1 51 1 24 2 429
2018-09-13 3 46 2 20 7 949
2018-09-14 1 20 0 91 11 369
2018-09-15 0 14 0 95 9 802
2018-09-16 1 34 0 104 6 636
2018-09-17 0 20 0 94 6 787
2018-09-18 0 13 0 99 5 082
2018-09-19 1 16 0 101 8 725
2018-09-20 3 10 1 105 5 461
2018-09-21 2 27 1 93 5 926
2018-09-22 1 28 0 115 6 599
2018-09-23 0 15 0 102 6 921
2018-09-24 1 14 1 103 6 887
2018-09-25 0 17 0 114 7 190
2018-09-26 1 10 0 111 7 736
2018-09-27 0 14 0 116 7 667
2018-09-28 4 13 0 127 6 767
2018-09-29 0 7 1 99 2 850
2018-09-30 1 17 0 36 5 426
Août 2018 32 583 16 101 188 648
Juillet 2018 21 386 3 104 182 475
Juin 2018 31 442 3 110 213 303
Mai 2018 21 422 4 107 174 393
2018-05-01 2 18 0 85 4 793
2018-05-02 0 25 0 84 5 424
2018-05-03 0 9 0 92 5 981
2018-05-04 0 25 0 86 3 613
2018-05-05 0 11 0 103 4 133
2018-05-06 2 6 0 98 5 788
2018-05-07 0 7 0 90 5 220
2018-05-08 2 35 2 96 5 516
2018-05-09 1 10 0 87 4 205
2018-05-10 0 11 0 91 4 954
2018-05-11 0 3 0 97 4 854
2018-05-12 1 15 0 92 4 186
2018-05-13 1 6 0 96 5 766
2018-05-14 1 15 0 90 6 028
2018-05-15 1 18 0 88 6 274
2018-05-16 0 13 0 91 5 693
2018-05-17 0 13 0 89 5 142
2018-05-18 0 14 0 90 4 921
2018-05-19 1 14 0 106 4 998
2018-05-20 5 19 0 107 6 617
2018-05-21 0 10 0 104 5 875
2018-05-22 0 6 0 100 7 031
2018-05-23 0 13 0 100 6 653
2018-05-24 1 5 0 97 6 315
2018-05-25 1 7 0 96 6 038
2018-05-26 0 11 0 103 5 731
2018-05-27 0 7 0 96 5 909
2018-05-28 2 31 0 106 6 887
2018-05-29 0 27 0 101 6 749
2018-05-30 0 10 2 92 6 528
2018-05-31 0 8 0 92 6 571
Avril 2018 25 564 5 104 159 849
2018-04-01 5 38 1 78 19 803
2018-04-02 1 37 0 81 4 900
2018-04-03 0 28 0 80 4 480
2018-04-04 1 26 0 88 4 206
2018-04-05 3 35 0 84 4 988
2018-04-06 0 18 0 82 4 984
2018-04-07 0 8 0 86 4 144
2018-04-08 2 17 0 90 4 595
2018-04-09 0 32 0 83 4 451
2018-04-10 0 21 0 84 4 551
2018-04-11 0 12 0 93 4 320
2018-04-12 0 21 0 104 5 608
2018-04-13 1 10 0 85 4 997
2018-04-14 2 39 1 91 4 749
2018-04-15 2 21 0 92 5 393
2018-04-16 1 13 0 92 5 327
2018-04-17 0 9 0 88 4 518
2018-04-18 0 12 1 89 4 185
2018-04-19 0 7 0 16 1 456
2018-04-20 0 6 0 82 2 948
2018-04-21 0 6 0 81 4 974
2018-04-22 0 3 0 83 4 887
2018-04-23 2 9 0 85 5 259
2018-04-24 3 20 0 82 4 998
2018-04-25 0 16 1 81 5 180
2018-04-26 0 11 0 78 4 558
2018-04-27 1 23 1 86 10 368
2018-04-28 0 26 0 88 5 449
2018-04-29 1 20 0 86 4 042
2018-04-30 0 20 0 99 5 531
Mars 2018 20 634 4 96 152 933
Février 2018 25 631 7 93 121 912
Janvier 2018 26 573 6 94 161 457
2018-01-01 1 13 0 81 3 873
2018-01-02 0 35 0 86 4 281
2018-01-03 0 16 0 84 4 474
2018-01-04 0 12 0 88 3 657
2018-01-05 0 25 0 83 5 021
2018-01-06 1 14 1 84 5 114
2018-01-07 3 35 0 78 5 039
2018-01-08 0 12 0 91 4 838
2018-01-09 2 43 1 88 5 141
2018-01-10 0 18 0 87 5 299
2018-01-11 0 6 0 74 2 983
2018-01-12 1 12 1 15 1 584
2018-01-13 4 36 0 18 1 661
2018-01-14 2 33 0 27 2 978
2018-01-15 0 10 0 22 2 126
2018-01-16 0 19 0 18 1 286
2018-01-17 0 6 0 16 1 525
2018-01-18 0 13 1 77 2 416
2018-01-19 0 24 0 88 4 882
2018-01-20 1 10 0 83 4 920
2018-01-21 0 14 0 86 5 414
2018-01-22 0 15 0 88 5 074
2018-01-23 0 21 0 91 4 662
2018-01-24 1 8 0 17 13 946
2018-01-25 0 11 0 80 24 972
2018-01-26 0 13 0 91 3 885
2018-01-27 2 12 2 85 6 401
2018-01-28 6 32 0 92 7 019
2018-01-29 1 12 0 86 5 701
2018-01-30 0 20 0 94 5 869
2018-01-31 1 23 0 88 5 416
* 2017 346 6 100 56 180 1 675 168
Décembre 2017 37 499 6 91 136 063
Novembre 2017 37 675 6 93 169 670
Octobre 2017 15 426 2 93 151 449
Septembre 2017 28 548 5 94 135 543
Août 2017 29 384 6 99 148 097
Juillet 2017 25 490 5 87 176 472
Juin 2017 33 603 4 89 156 248
Mai 2017 26 470 2 99 181 189
Avril 2017 31 490 5 180 139 896
Mars 2017 27 432 3 119 90 981
2017-03-01 1 13 0 20 1 366
2017-03-02 1 7 1 15 939
2017-03-03 4 15 0 16 1 322
2017-03-04 1 4 1 14 1 224
2017-03-05 0 11 0 14 760
2017-03-06 1 36 1 17 1 184
2017-03-07 0 14 0 18 1 120
2017-03-08 2 22 0 19 1 229
2017-03-09 1 23 0 15 1 153
2017-03-10 0 22 0 15 1 149
2017-03-11 0 15 0 16 1 171
2017-03-12 3 16 0 91 4 295
2017-03-13 0 14 0 91 4 471
2017-03-14 1 18 0 79 3 743
2017-03-15 0 9 0 71 3 377
2017-03-16 1 16 0 70 3 703
2017-03-17 0 8 0 73 3 263
2017-03-18 0 13 0 64 3 669
2017-03-19 0 9 0 92 3 639
2017-03-20 0 11 0 90 4 905
2017-03-21 2 6 0 83 5 720
2017-03-22 2 14 0 95 4 760
2017-03-23 1 9 0 66 6 486
2017-03-24 2 12 0 65 2 928
2017-03-25 0 15 0 67 3 275
2017-03-26 2 8 0 55 1 890
2017-03-27 0 16 0 119 3 309
2017-03-28 1 17 0 87 4 615
2017-03-29 0 20 0 86 4 109
2017-03-30 1 7 0 69 3 543
2017-03-31 0 12 0 73 2 664
Février 2017 31 587 7 87 74 924
Janvier 2017 27 496 5 80 114 636
* 2016 389 7 721 79 245 2 075 605
Décembre 2016 34 533 2 170 118 206
Novembre 2016 34 586 6 245 122 991
Octobre 2016 43 726 7 191 160 217
Septembre 2016 26 657 9 85 157 449
Août 2016 31 721 9 114 169 873
Juillet 2016 19 513 3 58 166 690
Juin 2016 30 565 5 53 211 715
Mai 2016 40 1 116 8 94 166 514
Avril 2016 27 529 7 65 155 208
2016-04-01 3 38 2 30 3 618
2016-04-02 0 23 1 23 3 917
2016-04-03 3 45 1 65 6 292
2016-04-04 3 45 0 31 4 738
2016-04-05 0 6 0 26 3 350
2016-04-06 0 15 0 22 4 462
2016-04-07 1 13 1 21 3 485
2016-04-08 0 9 0 23 3 328
2016-04-09 2 17 0 24 3 870
2016-04-10 0 13 0 25 4 267
2016-04-11 0 19 0 55 6 024
2016-04-12 1 16 0 59 14 106
2016-04-13 4 14 0 59 11 237
2016-04-14 0 14 0 52 5 426
2016-04-15 1 14 0 20 3 457
2016-04-16 0 7 0 50 5 198
2016-04-17 0 2 0 49 5 204
2016-04-18 1 17 1 20 4 013
2016-04-19 0 11 1 20 3 807
2016-04-20 1 17 0 23 3 488
2016-04-21 0 16 0 25 3 419
2016-04-22 0 21 0 37 4 063
2016-04-23 0 8 0 36 4 166
2016-04-24 1 14 0 37 5 654
2016-04-25 2 25 0 65 6 602
2016-04-26 0 16 0 63 5 983
2016-04-27 0 20 0 49 6 244
2016-04-28 1 12 0 54 6 223
2016-04-29 3 29 0 22 4 065
2016-04-30 0 13 0 56 5 502
Mars 2016 35 513 11 88 224 056
Février 2016 35 640 4 96 192 454
Janvier 2016 35 622 8 95 230 232
* 2015 373 6 684 79 100 1 549 803
Décembre 2015 28 499 7 68 140 303
Novembre 2015 40 724 5 35 146 607
Octobre 2015 32 760 10 84 227 528
Septembre 2015 40 948 13 100 169 012
Août 2015 36 566 12 61 119 954
2015-08-01 2 13 0 18 2 717
2015-08-02 0 7 0 13 2 055
2015-08-03 7 20 2 15 2 199
2015-08-04 1 9 0 40 3 590
2015-08-05 0 13 0 16 2 911
2015-08-06 0 5 0 14 2 574
2015-08-07 0 22 0 17 3 967
2015-08-08 0 14 0 17 3 023
2015-08-09 5 32 1 18 2 992
2015-08-10 2 30 1 17 4 088
2015-08-11 1 16 1 15 2 652
2015-08-12 3 23 0 16 2 544
2015-08-13 0 7 0 14 2 436
2015-08-14 0 8 0 55 4 945
2015-08-15 1 11 0 52 4 116
2015-08-16 0 12 0 13 2 678
2015-08-17 0 2 0 54 3 352
2015-08-18 0 6 0 49 3 473
2015-08-19 0 2 0 29 2 985
2015-08-20 1 13 1 19 3 315
2015-08-21 0 13 0 54 5 973
2015-08-22 0 4 0 13 4 672
2015-08-23 3 21 1 21 3 708
2015-08-24 2 33 2 19 4 048
2015-08-25 1 46 1 25 5 182
2015-08-26 0 17 0 18 5 281
2015-08-27 0 23 0 28 5 761
2015-08-28 1 44 1 17 5 899
2015-08-29 0 37 0 43 5 544
2015-08-30 1 26 1 43 3 953
2015-08-31 5 37 0 61 7 321
Juillet 2015 29 462 7 31 89 666
Juin 2015 24 453 5 30 112 317
Mai 2015 30 390 2 24 73 874
2015-05-01 0 17 0 15 2 030
2015-05-02 1 16 0 16 2 557
2015-05-03 1 29 0 18 2 371
2015-05-04 2 17 0 21 1 947
2015-05-05 0 2 0 16 1 636
2015-05-06 0 8 0 15 2 047
2015-05-07 0 6 0 14 2 022
2015-05-08 0 3 0 15 1 847
2015-05-09 0 5 0 18 1 813
2015-05-10 2 5 0 13 1 887
2015-05-11 0 6 0 14 1 631
2015-05-12 2 20 1 13 2 423
2015-05-13 0 11 0 13 2 977
2015-05-14 0 11 0 24 3 549
2015-05-15 2 11 0 18 2 773
2015-05-16 1 3 1 15 2 585
2015-05-17 0 6 0 12 2 212
2015-05-18 4 29 0 14 2 715
2015-05-19 0 8 0 15 1 683
2015-05-20 0 3 0 12 1 911
2015-05-21 1 4 0 13 2 338
2015-05-22 1 8 0 12 1 807
2015-05-23 1 6 0 15 2 186
2015-05-24 2 15 0 19 4 554
2015-05-25 1 21 0 24 2 499
2015-05-26 2 20 0 18 2 489
2015-05-27 0 21 0 17 1 695
2015-05-28 3 38 0 14 2 854
2015-05-29 4 23 0 15 4 584
2015-05-30 0 13 0 16 1 591
2015-05-31 0 5 0 11 2 661
Avril 2015 29 408 4 25 95 371
2015-04-01 1 15 0 20 2 794
2015-04-02 1 21 0 16 2 834
2015-04-03 0 14 0 17 2 508
2015-04-04 0 8 0 15 1 598
2015-04-05 0 4 0 16 4 225
2015-04-06 1 5 0 22 4 037
2015-04-07 1 8 0 17 3 300
2015-04-08 0 16 0 22 2 846
2015-04-09 0 3 0 18 3 300
2015-04-10 2 18 0 22 3 304
2015-04-11 1 19 1 18 3 102
2015-04-12 0 7 1 12 2 663
2015-04-13 1 10 0 14 3 621
2015-04-14 0 16 0 25 2 946
2015-04-15 0 5 0 17 2 800
2015-04-16 0 3 0 19 3 815
2015-04-17 1 9 0 16 3 313
2015-04-18 0 11 0 16 3 035
2015-04-19 0 5 0 16 4 184
2015-04-20 1 8 0 16 2 818
2015-04-21 0 1 0 18 2 616
2015-04-22 1 13 0 18 2 909
2015-04-23 0 19 0 24 4 246
2015-04-24 0 18 0 18 3 149
2015-04-25 8 32 1 17 3 211
2015-04-26 4 35 0 20 3 250
2015-04-27 3 35 0 18 3 609
2015-04-28 0 6 0 13 3 318
2015-04-29 2 23 1 16 3 839
2015-04-30 1 21 0 16 2 181
Mars 2015 38 550 7 37 130 116
2015-03-01 6 23 0 17 2 804
2015-03-02 1 11 0 19 6 535
2015-03-03 1 24 0 20 7 827
2015-03-04 1 8 0 21 6 847
2015-03-05 2 12 0 18 4 653
2015-03-06 2 23 1 37 2 453
2015-03-07 0 10 0 14 2 686
2015-03-08 0 19 0 14 2 573
2015-03-09 1 20 0 16 2 393
2015-03-10 1 14 1 14 2 610
2015-03-11 0 8 0 20 2 571
2015-03-12 1 14 0 18 2 502
2015-03-13 0 16 0 20 3 764
2015-03-14 0 8 0 20 4 537
2015-03-15 3 22 1 19 5 142
2015-03-16 0 8 0 14 2 163
2015-03-17 0 16 0 15 1 726
2015-03-18 0 2 0 14 1 638
2015-03-19 2 12 0 21 4 946
2015-03-20 2 14 1 21 7 189
2015-03-21 2 27 1 20 9 145
2015-03-22 1 11 0 27 8 492
2015-03-23 6 18 1 21 6 865
2015-03-24 1 23 1 17 4 732
2015-03-25 0 36 0 24 3 346
2015-03-26 1 33 0 19 3 386
2015-03-27 0 12 0 18 3 367
2015-03-28 0 8 0 20 4 407
2015-03-29 4 47 0 17 4 241
2015-03-30 0 38 0 15 2 577
2015-03-31 0 13 0 24 1 999
Février 2015 15 434 2 24 123 854
Janvier 2015 32 490 5 44 121 201
* 2014 428 7 364 58 58 2 478 164
Décembre 2014 24 360 4 33 191 610
Novembre 2014 37 572 7 46 525 858
Octobre 2014 45 928 8 58 364 915
Septembre 2014 24 549 8 32 162 413
Août 2014 17 251 4 27 191 624
Juillet 2014 25 369 3 30 236 312
Juin 2014 29 602 3 32 220 918
Mai 2014 34 842 6 29 157 174
Avril 2014 45 662 1 25 104 486
Mars 2014 32 595 4 26 120 439
Février 2014 24 660 5 28 102 996
Janvier 2014 92 974 5 33 99 419
* 2013 408 8 887 76 89 1 597 727
Décembre 2013 36 785 2 79 132 305
Novembre 2013 36 751 8 29 141 119
Octobre 2013 37 683 10 26 116 570
Septembre 2013 33 723 15 29 160 779
2013-09-01 0 57 0 19 3 222
2013-09-02 2 24 0 21 3 211
2013-09-03 1 22 0 19 3 225
2013-09-04 2 24 2 21 14 311
2013-09-05 1 19 0 17 22 207
2013-09-06 3 23 2 21 13 976
2013-09-07 1 51 2 24 20 435
2013-09-08 1 34 0 24 10 968
2013-09-09 0 22 0 18 2 939
2013-09-10 2 30 0 18 3 194
2013-09-11 1 27 1 18 2 264
2013-09-12 2 15 0 17 3 642
2013-09-13 0 12 0 19 3 775
2013-09-14 2 24 0 20 3 850
2013-09-15 0 22 1 19 2 626
2013-09-16 0 19 0 13 7 428
2013-09-17 1 29 2 16 3 178
2013-09-18 3 37 1 20 2 878
2013-09-19 0 26 0 25 3 592
2013-09-20 0 23 0 20 2 807
2013-09-21 1 8 0 18 2 488
2013-09-22 0 15 0 12 1 533
2013-09-23 0 22 1 23 2 729
2013-09-24 0 11 0 25 2 352
2013-09-25 2 32 1 29 3 227
2013-09-26 2 22 0 26 3 451
2013-09-27 1 26 2 19 3 427
2013-09-28 4 11 0 22 2 817
2013-09-29 1 16 0 12 1 720
2013-09-30 0 20 0 22 3 307
Août 2013 20 356 4 30 113 960
Juillet 2013 21 331 2 24 120 164
Juin 2013 40 731 5 34 119 512
Mai 2013 34 881 3 47 157 484
Avril 2013 38 799 8 33 124 279
Mars 2013 40 1 111 9 62 147 762
Février 2013 32 838 5 79 125 299
Janvier 2013 41 898 5 89 138 494
* 2012 446 10 690 67 157 1 274 957
Décembre 2012 57 1 411 4 45 150 137
2012-12-01 3 30 0 17 8 865
2012-12-02 0 39 0 29 12 336
2012-12-03 1 44 0 36 10 973
2012-12-04 1 36 0 25 8 090
2012-12-05 4 63 1 18 4 442
2012-12-06 3 55 0 22 3 938
2012-12-07 1 57 0 20 4 955
2012-12-08 1 21 0 36 3 479
2012-12-09 2 28 0 18 3 093
2012-12-10 2 73 0 19 5 209
2012-12-11 0 64 0 17 4 348
2012-12-12 2 32 0 16 3 366
2012-12-13 1 48 0 20 3 104
2012-12-14 1 41 0 20 3 934
2012-12-15 0 9 0 16 2 675
2012-12-16 6 94 1 23 4 989
2012-12-17 2 90 1 24 5 481
2012-12-18 4 48 1 45 5 932
2012-12-19 3 94 0 19 4 628
2012-12-20 2 61 0 38 4 148
2012-12-21 2 83 0 33 4 280
2012-12-22 1 17 0 18 3 038
2012-12-23 1 25 0 21 2 732
2012-12-24 0 19 0 17 5 198
2012-12-25 1 20 0 16 2 480
2012-12-26 1 11 0 20 2 873
2012-12-27 4 56 0 20 4 317
2012-12-28 3 33 0 20 2 804
2012-12-29 3 36 0 21 4 004
2012-12-30 0 54 0 24 4 260
2012-12-31 2 30 0 23 6 166
Novembre 2012 46 1 137 8 25 112 399
Octobre 2012 45 1 068 7 25 80 970
Septembre 2012 37 876 11 38 107 023
Août 2012 30 595 5 41 95 032
2012-08-01 1 10 0 13 3 408
2012-08-02 0 21 0 19 2 532
2012-08-03 0 19 0 15 2 650
2012-08-04 0 3 0 14 1 909
2012-08-05 0 5 0 12 1 913
2012-08-06 1 18 1 15 2 288
2012-08-07 0 13 0 15 2 613
2012-08-08 2 12 0 13 3 743
2012-08-09 1 27 0 14 3 247
2012-08-10 0 14 0 41 3 163
2012-08-11 2 20 1 20 2 655
2012-08-12 0 22 0 13 2 610
2012-08-13 2 54 1 18 3 586
2012-08-14 1 22 0 15 3 230
2012-08-15 1 15 0 15 2 618
2012-08-16 3 23 0 14 3 024
2012-08-17 0 7 0 19 3 643
2012-08-18 0 4 0 14 2 628
2012-08-19 3 17 0 16 3 017
2012-08-20 2 20 0 14 3 296
2012-08-21 0 12 1 16 3 643
2012-08-22 2 14 0 18 3 501
2012-08-23 0 26 0 17 3 497
2012-08-24 0 14 0 15 3 563
2012-08-25 0 23 0 16 3 262
2012-08-26 2 15 0 14 3 447
2012-08-27 1 23 0 13 3 342
2012-08-28 1 4 0 17 2 817
2012-08-29 2 22 0 20 3 476
2012-08-30 2 67 1 18 3 756
2012-08-31 1 29 0 29 2 955
Juillet 2012 24 563 2 157 78 638
Juin 2012 39 984 10 33 88 620
Mai 2012 22 703 5 26 77 701
2012-05-01 2 31 0 24 2 676
2012-05-02 2 37 0 16 2 377
2012-05-03 1 28 0 17 2 595
2012-05-04 0 32 0 17 2 833
2012-05-05 2 29 1 21 2 604
2012-05-06 0 26 0 19 3 019
2012-05-07 1 23 0 15 2 984
2012-05-08 1 21 0 15 2 018
2012-05-09 0 22 0 15 1 937
2012-05-10 3 29 1 26 2 194
2012-05-11 1 18 0 17 2 614
2012-05-12 0 25 0 18 2 467
2012-05-13 1 21 0 15 1 929
2012-05-14 0 19 0 15 2 270
2012-05-15 0 20 0 13 2 021
2012-05-16 2 19 1 20 1 978
2012-05-17 0 28 0 17 2 478
2012-05-18 1 11 0 13 2 280
2012-05-19 0 14 0 17 2 552
2012-05-20 0 12 0 20 2 256
2012-05-21 0 14 0 20 3 771
2012-05-22 1 14 0 17 1 888
2012-05-23 2 32 1 14 2 221
2012-05-24 0 39 1 16 2 279
2012-05-25 0 20 0 13 2 197
2012-05-26 0 11 0 12 2 044
2012-05-27 0 17 0 16 2 881
2012-05-28 0 19 0 13 2 192
2012-05-29 2 26 0 19 2 789
2012-05-30 0 14 0 19 4 625
2012-05-31 0 32 0 17 2 732
Avril 2012 33 714 4 33 95 151
Mars 2012 35 977 5 48 160 160
Février 2012 34 704 5 33 117 877
Janvier 2012 44 958 1 30 111 249
* 2011 822 21 877 118 48 1 861 895
Décembre 2011 68 1 315 7 36 141 929
Novembre 2011 94 1 539 4 36 150 015
Octobre 2011 81 1 597 13 41 169 207
Septembre 2011 96 1 991 19 24 158 540
Août 2011 68 1 372 16 48 135 201
Juillet 2011 57 1 156 10 30 112 626
Juin 2011 40 1 214 6 31 149 115
Mai 2011 64 1 997 8 39 181 997
2011-05-01 1 44 0 21 3 800
2011-05-02 2 97 0 21 4 247
2011-05-03 2 60 0 15 3 949
2011-05-04 2 57 0 22 4 174
2011-05-05 2 87 0 29 4 101
2011-05-06 1 46 0 19 3 293
2011-05-07 3 21 0 31 5 860
2011-05-08 1 13 1 29 6 061
2011-05-09 2 62 1 26 7 057
2011-05-10 3 117 1 32 13 635
2011-05-11 0 70 0 33 8 213
2011-05-12 4 99 0 39 6 910
2011-05-13 3 60 0 27 5 773
2011-05-14 3 45 1 23 4 456
2011-05-15 1 55 0 26 5 530
2011-05-16 1 73 0 34 6 924
2011-05-17 0 96 0 25 5 617
2011-05-18 4 144 0 29 7 640
2011-05-19 2 91 0 34 8 906
2011-05-20 1 45 0 28 5 778
2011-05-21 0 21 0 38 5 753
2011-05-22 1 55 0 29 6 481
2011-05-23 7 130 0 23 10 799
2011-05-24 1 41 0 28 4 569
2011-05-25 3 51 0 34 6 528
2011-05-26 0 71 2 24 4 490
2011-05-27 1 49 1 18 3 249
2011-05-28 0 36 0 14 2 868
2011-05-29 7 31 0 23 4 945
2011-05-30 3 76 0 28 5 514
2011-05-31 3 54 1 25 4 877
Avril 2011 46 1 637 9 38 176 986
Mars 2011 54 2 388 6 31 211 307
2011-03-01 3 122 0 18 6 680
2011-03-02 2 125 0 22 7 771
2011-03-03 2 101 0 20 6 758
2011-03-04 1 42 0 17 4 167
2011-03-05 3 23 0 20 4 811
2011-03-06 1 22 0 18 6 699
2011-03-07 1 42 1 17 6 565
2011-03-08 1 37 0 15 7 116
2011-03-09 1 39 0 16 10 831
2011-03-10 3 77 0 15 19 804
2011-03-11 2 61 0 19 12 773
2011-03-12 4 51 1 16 5 555
2011-03-13 4 68 0 15 5 274
2011-03-14 2 115 0 16 5 003
2011-03-15 1 92 0 17 6 428
2011-03-16 3 212 1 21 9 712
2011-03-17 0 120 1 19 5 516
2011-03-18 0 109 0 19 3 950
2011-03-19 1 32 0 16 3 488
2011-03-20 0 56 0 20 3 576
2011-03-21 1 81 0 15 6 916
2011-03-22 1 58 0 30 6 314
2011-03-23 2 95 0 19 8 455
2011-03-24 3 147 0 19 6 592
2011-03-25 0 66 0 22 9 114
2011-03-26 1 15 0 21 4 424
2011-03-27 0 24 0 31 4 299
2011-03-28 3 77 0 28 5 137
2011-03-29 3 92 1 26 4 709
2011-03-30 4 104 1 25 5 221
2011-03-31 1 83 0 28 7 649
Février 2011 59 2 656 5 46 128 248
Janvier 2011 95 3 015 15 44 146 724
* 2010 615 23 079 70 91 1 409 620
Décembre 2010 54 2 635 5 43 199 984
2010-12-01 4 200 0 33 5 797
2010-12-02 2 80 0 27 4 428
2010-12-03 0 92 0 23 3 768
2010-12-04 1 50 1 19 2 892
2010-12-05 1 52 0 26 3 390
2010-12-06 0 92 0 29 3 863
2010-12-07 1 113 0 34 4 176
2010-12-08 2 59 0 34 4 663
2010-12-09 1 112 1 30 4 738
2010-12-10 0 81 0 26 4 475
2010-12-11 2 57 0 29 3 894
2010-12-12 2 51 0 42 3 962
2010-12-13 3 63 0 32 4 381
2010-12-14 2 89 0 32 7 458
2010-12-15 2 146 0 32 8 138
2010-12-16 1 120 0 33 13 324
2010-12-17 2 134 0 43 25 752
2010-12-18 1 65 0 17 12 634
2010-12-19 3 59 0 21 14 562
2010-12-20 4 92 1 26 8 417
2010-12-21 1 83 1 24 6 202
2010-12-22 4 109 0 34 8 319
2010-12-23 2 97 0 31 4 509
2010-12-24 0 19 0 17 4 671
2010-12-25 2 33 0 33 4 728
2010-12-26 2 42 0 31 4 717
2010-12-27 3 132 1 41 5 593
2010-12-28 1 78 0 43 4 517
2010-12-29 2 117 0 31 4 767
2010-12-30 2 87 0 24 4 387
2010-12-31 1 31 0 24 2 862
Novembre 2010 59 2 475 6 49 127 779
Octobre 2010 56 2 811 15 58 134 942
Septembre 2010 53 1 528 8 29 95 249
Août 2010 32 1 287 6 33 89 617
Juillet 2010 34 1 637 5 32 97 290
2010-07-01 1 30 0 21 3 321
2010-07-02 1 52 1 16 3 049
2010-07-03 1 37 0 16 2 560
2010-07-04 0 16 0 13 2 269
2010-07-05 4 85 0 26 4 056
2010-07-06 0 91 0 21 4 081
2010-07-07 1 121 1 21 4 639
2010-07-08 1 73 0 24 3 929
2010-07-09 1 79 0 24 3 726
2010-07-10 0 27 0 17 2 693
2010-07-11 1 29 0 17 2 442
2010-07-12 0 62 0 32 4 813
2010-07-13 2 51 0 17 2 918
2010-07-14 1 36 0 21 3 013
2010-07-15 0 52 0 19 3 510
2010-07-16 1 70 0 16 3 362
2010-07-17 1 24 0 13 2 507
2010-07-18 4 28 0 14 2 203
2010-07-19 2 62 0 17 3 256
2010-07-20 0 28 0 22 2 386
2010-07-21 0 42 0 21 2 918
2010-07-22 3 41 2 28 2 834
2010-07-23 1 66 0 16 3 158
2010-07-24 0 49 1 24 2 730
2010-07-25 0 44 0 20 2 856
2010-07-26 1 74 0 20 3 201
2010-07-27 0 44 0 18 3 066
2010-07-28 6 60 0 24 2 949
2010-07-29 0 55 0 19 2 833
2010-07-30 0 72 0 22 3 484
2010-07-31 1 37 0 20 2 528
Juin 2010 46 2 137 3 28 109 648
Mai 2010 50 1 497 6 28 99 050
Avril 2010 45 1 888 3 26 102 219
2010-04-01 3 88 0 18 4 705
2010-04-02 1 97 1 17 5 127
2010-04-03 0 48 1 16 4 067
2010-04-04 0 25 0 17 3 540
2010-04-05 2 54 0 15 3 258
2010-04-06 0 69 0 19 3 639
2010-04-07 1 67 0 19 3 590
2010-04-08 5 109 0 25 4 043
2010-04-09 2 117 0 22 4 430
2010-04-10 0 44 0 17 2 821
2010-04-11 2 71 0 18 3 408
2010-04-12 2 101 0 21 4 509
2010-04-13 1 64 0 16 3 272
2010-04-14 2 56 0 19 3 587
2010-04-15 2 42 1 20 3 071
2010-04-16 2 48 0 18 3 184
2010-04-17 0 37 0 17 2 301
2010-04-18 0 20 0 17 2 342
2010-04-19 1 45 0 22 3 138
2010-04-20 2 70 0 18 3 550
2010-04-21 1 33 0 16 2 917
2010-04-22 2 70 0 26 3 255
2010-04-23 0 60 0 22 3 359
2010-04-24 4 34 0 16 2 265
2010-04-25 4 71 0 18 2 831
2010-04-26 1 105 0 23 3 707
2010-04-27 3 68 0 19 2 863
2010-04-28 0 43 0 20 3 119
2010-04-29 0 61 0 16 3 058
2010-04-30 2 71 0 15 3 263
Mars 2010 53 1 534 2 46 118 201
2010-03-01 2 57 0 30 3 808
2010-03-02 1 43 0 28 3 278
2010-03-03 1 50 0 25 3 337
2010-03-04 1 45 0 29 2 857
2010-03-05 2 45 0 23 2 770
2010-03-06 0 15 1 22 3 117
2010-03-07 3 37 1 27 3 446
2010-03-08 2 103 0 29 4 766
2010-03-09 4 45 0 30 3 965
2010-03-10 1 57 0 29 4 220
2010-03-11 1 71 0 36 4 632
2010-03-12 0 25 0 30 4 266
2010-03-13 4 54 0 32 4 286
2010-03-14 1 46 0 16 4 716
2010-03-15 2 68 0 35 4 863
2010-03-16 0 24 0 29 4 037
2010-03-17 3 52 0 26 4 054
2010-03-18 2 43 0 25 3 982
2010-03-19 0 43 0 46 4 350
2010-03-20 1 24 0 28 3 099
2010-03-21 4 43 0 27 3 413
2010-03-22 6 57 0 19 3 536
2010-03-23 2 73 0 16 3 468
2010-03-24 1 69 0 24 3 359
2010-03-25 1 37 0 19 3 480
2010-03-26 0 40 0 21 3 801
2010-03-27 0 21 0 16 2 808
2010-03-28 2 34 0 17 3 354
2010-03-29 3 83 0 15 4 329
2010-03-30 1 60 0 19 3 857
2010-03-31 2 70 0 21 4 947
Février 2010 65 1 574 4 91 117 274
Janvier 2010 68 2 076 7 43 118 367
* 2009 752 28 223 96 159 970 278
Décembre 2009 39 2 001 5 54 122 418
Novembre 2009 59 3 138 6 38 117 432
Octobre 2009 67 3 218 11 18 122 232
Septembre 2009 73 2 730 14 159 92 082
2009-09-01 4 68 1 15 2 626
2009-09-02 0 56 0 12 2 372
2009-09-03 2 195 2 15 3 946
2009-09-04 2 190 0 12 4 086
2009-09-05 1 48 1 10 2 054
2009-09-06 4 66 0 9 2 505
2009-09-07 2 88 0 12 2 827
2009-09-08 1 58 0 14 2 613
2009-09-09 3 77 2 159 4 703
2009-09-10 0 114 0 14 3 743
2009-09-11 1 74 0 12 3 640
2009-09-12 2 56 0 10 2 609
2009-09-13 3 93 0 10 3 245
2009-09-14 1 193 1 14 5 003
2009-09-15 4 138 1 12 3 518
2009-09-16 1 122 0 13 3 210
2009-09-17 4 86 2 11 2 944
2009-09-18 2 98 0 11 2 944
2009-09-19 5 104 2 11 2 638
2009-09-20 5 97 0 15 2 994
2009-09-21 3 77 0 12 2 877
2009-09-22 3 56 0 0 2 425
2009-09-23 2 72 0 13 2 559
2009-09-24 1 96 0 12 2 902
2009-09-25 1 54 0 11 2 059
2009-09-26 1 35 0 9 2 795
2009-09-27 2 49 0 13 2 487
2009-09-28 5 85 0 10 2 564
2009-09-29 6 92 0 27 4 187
2009-09-30 2 93 2 12 3 007
Août 2009 47 1 405 8 15 61 919
Juillet 2009 68 1 737 11 21 67 267
Juin 2009 63 2 759 4 37 72 789
Mai 2009 46 2 166 6 16 66 386
Avril 2009 101 2 850 6 16 73 303
Mars 2009 80 3 538 7 17 83 610
Février 2009 57 1 586 6 16 50 521
Janvier 2009 52 1 095 12 10 40 319
* 2008 334 4 655 56 26 234 055
Décembre 2008 36 663 7 12 28 104
Novembre 2008 51 1 090 9 10 35 948
Octobre 2008 50 609 5 10 26 582
Septembre 2008 40 619 5 10 24 365
Août 2008 28 252 6 9 21 916
Juillet 2008 20 256 5 7 16 733
Juin 2008 17 363 6 26 18 903
Mai 2008 17 180 2 10 13 320
Avril 2008 16 146 3 8 16 063
Mars 2008 18 158 1 9 12 835
Février 2008 19 155 2 9 9 679
Janvier 2008 22 164 5 7 9 607
* 2007 276 2 246 55 9 102 999
Décembre 2007 21 167 5 8 17 081
Novembre 2007 20 168 3 6 8 467
Octobre 2007 21 147 4 5 8 193
Septembre 2007 22 183 4 9 9 896
2007-09-01 1 6 0 4 255
2007-09-02 1 7 1 3 302
2007-09-03 2 13 0 5 572
2007-09-04 1 15 1 9 508
2007-09-05 1 4 1 7 396
2007-09-06 1 23 0 6 618
2007-09-07 1 9 1 0 426
2007-09-08 0 5 0 4 308
2007-09-09 0 2 0 5 280
2007-09-10 1 8 0 0 334
2007-09-11 5 17 0 6 584
2007-09-12 0 3 0 7 335
2007-09-13 0 2 0 8 430
2007-09-14 0 3 0 3 253
2007-09-15 0 1 0 2 169
2007-09-16 0 0 0 3 139
2007-09-17 0 3 0 4 258
2007-09-18 0 1 0 5 289
2007-09-19 1 8 0 4 366
2007-09-20 1 4 0 3 258
2007-09-21 1 5 0 3 285
2007-09-22 0 5 0 7 259
2007-09-23 1 2 0 3 272
2007-09-24 0 8 0 4 304
2007-09-25 1 3 0 3 367
2007-09-26 1 5 0 4 246
2007-09-27 0 2 0 4 261
2007-09-28 0 4 0 4 291
2007-09-29 2 11 0 4 373
2007-09-30 0 4 0 0 158
Août 2007 23 226 2 6 9 096
Juillet 2007 18 127 1 4 10 165
Juin 2007 25 309 2 6 13 196
Mai 2007 30 315 8 7 11 830
2007-05-01 1 4 0 3 287
2007-05-02 1 6 0 4 196
2007-05-03 0 15 0 4 377
2007-05-04 0 6 0 3 271
2007-05-05 1 5 1 6 235
2007-05-06 0 6 1 3 344
2007-05-07 3 19 0 5 507
2007-05-08 1 14 0 6 449
2007-05-09 0 14 0 4 339
2007-05-10 1 9 1 4 472
2007-05-11 1 18 0 4 499
2007-05-12 3 8 0 5 354
2007-05-13 1 10 0 4 358
2007-05-14 4 25 0 7 643
2007-05-15 0 22 1 4 517
2007-05-16 0 14 0 3 354
2007-05-17 0 3 0 4 229
2007-05-18 0 4 0 5 356
2007-05-19 1 6 0 5 346
2007-05-20 2 14 0 5 515
2007-05-21 2 18 0 6 530
2007-05-22 0 13 1 5 424
2007-05-23 2 11 1 4 427
2007-05-24 0 7 0 3 276
2007-05-25 1 9 0 3 488
2007-05-26 0 3 0 4 251
2007-05-27 3 5 0 3 276
2007-05-28 0 4 2 4 451
2007-05-29 1 11 0 5 439
2007-05-30 0 5 0 4 316
2007-05-31 1 7 0 4 304
Avril 2007 44 428 13 9 13 382
Mars 2007 52 176 13 4 1 693
2007-03-08 5 5 1 2 0
2007-03-09 4 10 2 3 0
2007-03-10 0 0 0 1 0
2007-03-11 0 2 0 2 0
2007-03-12 1 5 0 2 0
2007-03-13 18 26 0 2 0
2007-03-14 4 7 0 3 0
2007-03-15 0 1 0 1 0
2007-03-16 0 1 0 2 0
2007-03-17 0 0 0 1 0
2007-03-18 0 0 2 2 0
2007-03-19 1 4 1 2 0
2007-03-20 3 10 2 2 0
2007-03-21 1 3 0 1 0
2007-03-22 1 13 1 3 0
2007-03-23 4 12 1 4 0
2007-03-24 1 2 1 1 0
2007-03-25 0 2 0 2 0
2007-03-26 4 12 1 2 223
2007-03-27 2 30 0 3 507
2007-03-28 0 13 0 3 452
2007-03-29 1 6 0 2 100
2007-03-30 0 3 0 3 131
2007-03-31 2 9 1 3 280